Regional Weather Roundup
Issued by NWS

Home | Current Version | Previous Version | Graphics & Text | Print | Product List | Glossary On
Versions: 1 2 3 4 5 6 7 8 9 10 11 12 13 14 15 16 17 18 19 20 21 22 23 24 25 26 27 28 29 30 31 32 33 34 35 36 37 38 39 40 41 42 43 44 45 46 47 48 49 50
647
ASUS43 KLMK 271610
RWRKY
KENTUCKY REGIONAL WEATHER ROUNDUP
NATIONAL WEATHER SERVICE LOUISVILLE KY
1200 PM EDT MON MAR 27 2017

NOTE "FAIR" INDICATES FEW OR NO CLOUDS BELOW 12,000 FEET
WITH NO SIGNIFICANT WEATHER AND/OR OBSTRUCTIONS TO VISIBILITY.

KYZ001>023-026-027-061>063-070>075-271700-
WESTERN AND SOUTH CENTRAL KENTUCKY

CITY           SKY/WX    TMP DP  RH WIND       PRES   REMARKS
PADUCAH        PTSUNNY   66  54  65 SW12G21   29.89R
HENDERSON      CLOUDY    57  55  94 SE10      29.89S
OWENSBORO      CLOUDY    60  56  86 SE10      29.92F
HOPKINSVILLE   PTSUNNY   68  63  83 S9        29.92F
BOWLING GREEN  CLOUDY    65  59  81 S6        29.96F
GLASGOW        CLOUDY    64  60  85 S5        29.98F
$$

KYZ024-025-028>034-038-045-046-053-271700-
NORTH CENTRAL KENTUCKY

CITY           SKY/WX    TMP DP  RH WIND       PRES   REMARKS
LOUISVILLE/SDF RAIN      59  54  83 E7        29.96F
LOUISVILLE/LOU LGT RAIN  60  53  77 SE6       29.99F
FORT KNOX      CLOUDY    58  57  99 E6        29.94F
$$

KYZ035>037-039>044-047>052-055>060-089>105-271700-
NORTHEAST KENTUCKY

CITY           SKY/WX    TMP DP  RH WIND       PRES   REMARKS
LEXINGTON      CLOUDY    63  55  75 S8        30.01R
COVINGTON      CLOUDY    60  50  69 SE8       29.99F
FRANKFORT      CLOUDY    63  53  70 SW5       29.99R
$$

KYZ054-064>069-076>088-106>120-271700-
SOUTHEAST KENTUCKY

CITY           SKY/WX    TMP DP  RH WIND       PRES   REMARKS
JACKSON        PTSUNNY   64  56  75 CALM      30.01F
LONDON         MOSUNNY   72  58  61 SW10G23   30.00F
SOMERSET       CLOUDY    66  57  72 W12G22    30.02S
MIDDLESBORO    MOSUNNY   69  57  65 S9G18     30.05S
MONTICELLO     CLOUDY    72  62  71 W21       30.02S
$$





USA.gov is the U.S. government's official web portal to all federal, state and local government web resources and services.